Cleveland Burke, OH

5:18 PM EDT on June 28, 2017 (GMT -0400)
Burke Lakefront

Weather History for KBKL - January, 2001

Change the Weather History Date:

Thursday, January 4, 2001

  Actual Average Record
Temperature  
Mean Temperature 26 °F -  
Max Temperature 28 °F 35 °F 68 °F (1997)
Min Temperature 24 °F 25 °F 5 °F (1999)
Degree Days  
Heating Degree Days 39    
Moisture  
Dew Point 22 °F    
Average Humidity 83    
Maximum Humidity 100    
Minimum Humidity 74    
Precipitation  
Precipitation 0.00 in - - ()
Sea Level Pressure  
Sea Level Pressure 30.03 in    
Wind  
Wind Speed 15 mph (WSW)    
Max Wind Speed 22 mph    
Max Gust Speed 30 mph    
Visibility 7 miles    
Events Snow    
Averages and records for this station are not official NWS values.
T = Trace of Precipitation, MM = Missing Value Source: NWS Daily Summary

Daily Weather History Graph

Daily Weather History Graph

Search for Another Location

Airport or City:

Trip Planner

Search our weather history database for the weather conditions in past years. The results will help you decide how hot, cold, wet, or windy it might be!

Date:

Astronomy

Jan. 04, 2001 Rise Set
Actual Time 7:53 AM EST 5:10 PM EST
Civil Twilight 7:22 AM EST 5:41 PM EST
Nautical Twilight 6:47 AM EST 6:16 PM EST
Astronomical Twilight 6:14 AM EST 6:49 PM EST
Moon 1:19 PM EST (1/4) 1:52 AM EST (1/4)
Length of Visible Light 10h 19m
Length of Day
9h 17m
Waxing Gibbous, 68% of the Moon is Illuminated
Jan 4
Waxing Gibbous
Jan 9
Full
Jan 16
Last Quarter
Jan 24
New
Feb 1
First Quarter

Hourly Weather History & Observations

Time (EST) Temp. Windchill Dew Point Humidity Pressure Visibility Wind Dir Wind Speed Gust Speed Precip Events Conditions
12:05 AM 24.8 °F 11.9 °F 21.2 °F 86% 30.02 in 7.0 mi WSW 16.1 mph - 0.00 in   Overcast
12:53 AM 24.1 °F 10.6 °F 21.9 °F 91% 30.04 in 8.0 mi WSW 17.3 mph - 0.00 in   Overcast
1:53 AM 24.1 °F 11.0 °F 21.9 °F 91% 30.03 in 5.0 mi SW 16.1 mph - 0.00 in Snow Light Snow
2:36 AM 24.8 °F 12.4 °F 21.2 °F 86% 30.01 in 2.5 mi WSW 15.0 mph - 0.00 in Snow Light Snow
2:53 AM 24.1 °F 11.5 °F 21.9 °F 91% 30.04 in 2.0 mi WSW 15.0 mph - 0.00 in Snow Light Snow
3:09 AM 24.8 °F 12.4 °F 21.2 °F 86% 30.02 in 3.0 mi WSW 15.0 mph - 0.00 in Snow Light Snow
3:16 AM 24.8 °F 12.4 °F 21.2 °F 86% 30.02 in 3.0 mi WSW 15.0 mph - 0.00 in Snow Light Snow
3:53 AM 25.0 °F 13.1 °F 21.9 °F 88% 30.05 in 3.0 mi WSW 13.8 mph - 0.00 in Snow Light Snow
4:21 AM 24.8 °F 12.4 °F 23.0 °F 93% 30.02 in 2.5 mi WSW 15.0 mph - 0.00 in Snow Light Snow
4:53 AM 25.0 °F 13.1 °F 24.1 °F 96% 30.04 in 1.8 mi WSW 13.8 mph - 0.00 in Snow Light Snow
5:02 AM 24.8 °F 13.4 °F 24.8 °F 100% 30.01 in 2.5 mi WSW 12.7 mph - 0.00 in Snow Light Snow
5:21 AM 26.6 °F 14.3 °F 24.8 °F 93% 30.01 in 3.0 mi West 16.1 mph - 0.00 in Snow Light Snow
5:40 AM 26.6 °F 13.8 °F 23.0 °F 86% 30.03 in 7.0 mi West 17.3 mph - 0.00 in Snow Light Snow
5:53 AM 26.1 °F 13.6 °F 21.9 °F 84% 30.06 in 9.0 mi West 16.1 mph - 0.00 in   Overcast
6:53 AM 26.1 °F 12.3 °F 21.9 °F 84% 30.07 in 10.0 mi West 19.6 mph - 0.00 in   Overcast
7:53 AM 26.1 °F 12.7 °F 21.9 °F 84% 30.08 in 9.0 mi West 18.4 mph - 0.00 in Snow Light Snow
8:53 AM 26.1 °F 13.1 °F 21.0 °F 81% 30.09 in 10.0 mi West 17.3 mph - 0.00 in   Overcast
9:22 AM 24.8 °F 11.9 °F 21.2 °F 86% 30.06 in 1.8 mi WNW 16.1 mph - 0.00 in Snow Light Snow
9:42 AM 26.6 °F 14.3 °F 21.2 °F 80% 30.06 in 2.0 mi West 16.1 mph - 0.00 in Snow Light Snow
9:53 AM 26.1 °F 14.0 °F 21.9 °F 84% 30.09 in 2.0 mi West 15.0 mph - 0.00 in Snow Light Snow
10:00 AM 26.6 °F 15.2 °F 23.0 °F 86% 30.07 in 1.8 mi West 13.8 mph - 0.00 in Snow Light Snow
10:10 AM 26.6 °F 15.2 °F 21.2 °F 80% 30.08 in 3.0 mi West 13.8 mph - 0.00 in Snow Light Snow
10:24 AM 26.6 °F 15.2 °F 21.2 °F 80% 30.08 in 5.0 mi West 13.8 mph - 0.00 in Snow Light Snow
10:53 AM 26.1 °F 16.2 °F 19.9 °F 78% 30.11 in 10.0 mi West 10.4 mph - 0.00 in   Overcast
11:53 AM 27.0 °F 18.0 °F 21.0 °F 78% 30.10 in 10.0 mi West 9.2 mph - N/A   Overcast
12:12 PM 26.6 °F 16.8 °F 21.2 °F 80% 30.08 in 10.0 mi West 10.4 mph - N/A   Overcast
12:21 PM 26.6 °F 16.2 °F 21.2 °F 80% 30.08 in 10.0 mi West 11.5 mph - N/A   Overcast
12:33 PM 26.6 °F 16.8 °F 21.2 °F 80% 30.08 in 10.0 mi West 10.4 mph - N/A   Overcast
12:40 PM 26.6 °F 15.7 °F 21.2 °F 80% 30.08 in 10.0 mi West 12.7 mph - N/A   Overcast
12:53 PM 27.0 °F 17.3 °F 21.9 °F 81% 30.10 in 7.0 mi West 10.4 mph - N/A   Overcast
1:53 PM 27.0 °F 17.3 °F 21.0 °F 78% 30.07 in 10.0 mi WSW 10.4 mph - N/A   Overcast
2:53 PM 27.0 °F 17.3 °F 19.9 °F 75% 30.06 in 10.0 mi WSW 10.4 mph - N/A   Overcast
3:53 PM 27.0 °F 14.7 °F 21.0 °F 78% 30.06 in 10.0 mi SW 16.1 mph - N/A   Overcast
4:53 PM 27.0 °F 14.7 °F 21.0 °F 78% 30.03 in 10.0 mi SW 16.1 mph - N/A   Overcast
5:53 PM 28.0 °F 18.1 °F 21.0 °F 75% 30.03 in 9.0 mi SW 11.5 mph - N/A   Overcast
6:53 PM 28.0 °F 16.5 °F 21.0 °F 75% 30.00 in 8.0 mi South 15.0 mph - N/A   Overcast
7:53 PM 28.0 °F 17.5 °F 21.0 °F 75% 29.98 in 8.0 mi SSW 12.7 mph - N/A   Overcast
8:53 PM 28.0 °F 18.6 °F 21.0 °F 75% 29.94 in 8.0 mi SSW 10.4 mph - N/A   Mostly Cloudy
9:04 PM 28.4 °F 17.5 °F 21.2 °F 74% 29.90 in 8.0 mi SSW 13.8 mph - N/A   Scattered Clouds
9:53 PM 28.0 °F 14.9 °F 21.0 °F 75% 29.88 in 8.0 mi South 19.6 mph 26.5 mph N/A   Overcast
10:53 PM 28.0 °F 14.6 °F 21.9 °F 78% 29.85 in 9.0 mi South 20.7 mph 27.6 mph N/A   Overcast
11:53 PM 28.9 °F 15.4 °F 21.9 °F 75% 29.79 in 8.0 mi South 21.9 mph 29.9 mph 0.00 in Snow Light Snow